GFSFLT2_con_mucape_006.txt.gz
CAPE
1064 1107 1029 1059 1040 979 918 866 898 886 815 662 535 340 153 12 0 0 0 0 6 29 84 48 10 9 20 16 0 0 0 0
1877 1387 1039 1029 909 836 754 688 720 766 752 597 347 210 140 84 65 10 101 56 89 176 163 165 128 86 54 47 8 0 0 0
1866 1556 1326 1042 767 619 658 715 658 642 640 507 276 36 8 13 76 190 186 189 194 238 305 269 193 73 25 43 11 0 0 0
1437 1213 1036 738 494 480 454 395 335 324 342 285 198 144 142 173 114 168 295 335 432 421 426 415 242 40 6 0 0 0 0 0
789 656 480 378 347 289 132 147 104 127 227 229 240 290 287 267 185 131 33 47 22 3 13 41 9 10 1 0 0 0 0 0
425 272 201 185 129 102 8 55 59 140 353 393 386 335 221 26 14 0 0 0 0 0 0 0 0 0 0 0 0 0 0 0
183 82 7 18 18 21 37 87 225 346 458 519 344 171 41 0 1 4 1 0 0 0 0 0 0 0 0 0 0 0 0 0
328 132 1 0 7 52 138 213 373 586 628 515 367 135 84 19 34 36 10 0 0 0 0 0 0 0 0 0 0 0 0 0
447 400 223 26 48 68 97 161 399 560 683 659 322 87 27 27 34 47 29 12 0 0 0 0 0 0 0 0 0 0 0 0
578 509 415 148 157 107 68 88 194 109 232 106 51 39 27 34 41 40 17 0 0 0 0 0 0 0 0 0 0 0 0 0
475 406 278 90 112 93 25 60 48 117 59 43 30 29 16 9 11 1 0 0 0 0 0 0 0 0 0 0 0 0 0 0
639 387 205 138 89 89 80 34 27 36 35 19 22 15 15 11 10 4 0 0 0 0 0 0 0 0 0 0 0 0 0 0
475 282 183 92 41 32 19 15 45 24 0 1 0 0 0 0 0 0 0 0 0 0 0 0 0 0 0 0 0 0 0 0
45 38 27 8 2 21 25 2 2 0 0 0 0 0 0 0 0 0 0 0 0 0 0 0 0 0 0 0 0 0 0 0
4 0 0 0 0 0 0 0 0 0 0 0 0 0 0 0 0 0 0 0 0 0 0 0 0 0 0 0 0 0 0 0
0 0 0 0 0 0 0 0 0 0 0 0 0 0 0 0 0 0 0 0 0 0 0 0 0 0 0 0 0 1 0 0
0 0 0 0 0 0 0 0 0 0 0 0 0 0 0 0 0 0 0 0 0 0 0 0 0 0 0 0 0 0 0 0
0 0 0 0 0 0 0 0 0 0 0 0 0 0 0 0 0 0 0 0 0 0 0 0 0 0 0 0 0 0 0 0
0 0 0 0 0 0 0 0 0 0 0 0 0 0 0 0 0 0 0 0 0 8 1 0 0 0 0 0 0 0 0 0
0 0 0 0 0 0 0 0 0 0 0 0 0 0 0 0 0 0 3 0 7 6 5 0 0 0 0 0 0 0 0 0

GFSFLT2_con_mucape_009.txt.gz
CAPE
1401 1462 1372 1185 1082 990 889 778 823 776 709 588 391 221 88 38 35 46 14 11 124 114 62 83 28 65 48 19 0 0 0 0
1521 1470 1323 1252 1193 984 873 743 706 689 594 452 206 146 70 112 39 50 157 175 161 184 250 242 182 103 54 39 7 0 0 0
1064 1153 948 1134 1236 1006 775 686 634 605 506 372 159 153 177 162 101 134 274 200 292 380 363 322 249 64 1 23 0 0 0 0
1538 1536 1656 1122 860 835 734 559 428 420 395 494 415 410 387 292 259 127 131 148 293 213 199 213 133 133 69 0 0 0 0 0
1379 1367 1215 983 748 611 485 385 315 327 436 445 562 535 673 619 481 311 258 38 32 2 22 64 87 23 0 0 0 0 0 0
925 893 743 538 405 367 170 177 208 343 488 631 707 705 553 177 108 2 0 0 0 0 0 0 0 0 0 0 0 0 0 0
692 432 317 212 122 56 34 102 213 396 598 622 670 433 189 28 3 1 6 20 0 0 0 0 0 0 0 0 0 0 0 0
364 167 36 12 8 54 99 108 171 288 305 295 228 175 82 54 7 19 35 47 24 8 0 0 0 0 0 0 0 0 0 0
323 246 59 13 56 69 44 42 12 32 181 183 139 98 46 43 38 39 45 49 22 0 0 0 0 0 0 0 0 0 0 0
449 404 266 73 59 5 5 3 1 1 75 45 17 30 31 9 20 8 3 8 0 0 0 0 0 0 0 0 0 0 0 0
437 448 250 159 50 15 16 25 21 81 62 26 16 16 5 6 2 1 9 8 0 0 0 0 0 0 0 0 0 0 0 0
370 417 281 125 90 69 59 25 20 17 30 43 35 1 1 0 0 0 0 0 0 0 0 0 0 0 0 0 0 0 0 0
563 372 225 85 22 0 3 0 0 28 4 0 0 0 0 0 0 0 0 0 0 0 0 0 0 0 0 0 0 0 0 0
102 42 21 1 0 0 0 0 0 0 0 0 0 0 0 0 0 0 0 0 0 0 0 0 0 0 0 0 0 0 0 0
0 0 0 0 0 0 0 0 0 0 0 0 0 0 0 0 0 0 0 0 0 0 0 0 0 0 0 0 0 0 0 0
0 0 0 0 0 0 0 0 0 0 0 0 0 0 0 0 0 0 0 0 0 0 0 0 0 0 0 0 0 0 0 0
0 0 0 0 0 0 0 0 0 0 0 0 0 0 0 0 0 0 0 0 0 0 0 0 0 0 1 0 0 0 0 0
0 0 0 0 0 0 0 0 0 0 0 0 0 0 0 0 0 0 0 0 0 7 1 0 0 0 0 0 0 0 0 0
0 0 0 0 0 0 0 0 0 0 0 0 0 0 0 0 0 0 0 0 7 4 0 0 0 0 0 0 0 0 0 0
0 0 0 0 0 0 0 0 0 0 0 0 0 0 0 0 0 0 0 7 10 7 0 0 0 0 0 0 0 0 29 26

GFSFLT2_con_mucape_012.txt.gz
CAPE
1262 1083 835 1130 1204 946 794 819 835 770 664 501 249 98 69 52 47 34 3 1 26 49 48 92 92 66 27 0 0 0 0 0
1348 1196 1321 1287 1269 891 758 723 696 670 523 355 190 105 104 104 25 109 116 104 98 131 171 195 175 180 56 37 12 0 0 0
1341 1302 1244 1133 1017 1078 720 702 625 516 436 224 118 151 173 144 89 166 264 268 284 345 325 310 199 212 3 0 13 0 0 0
1262 1425 1304 1154 775 737 580 284 213 251 466 500 381 663 617 413 238 176 119 96 166 19 8 66 70 0 0 0 0 0 0 0
1316 1549 1207 1067 699 485 220 185 262 558 785 859 821 999 939 665 311 191 195 0 63 1 1 0 1 0 0 0 0 0 0 0
1147 1362 1149 822 482 194 225 282 471 699 931 1080 1034 963 965 565 276 170 176 80 22 0 0 0 0 0 0 0 0 0 0 0
932 866 749 684 388 316 404 621 852 984 1047 903 666 661 706 624 311 119 17 26 25 16 2 0 0 0 0 0 0 0 0 0
961 720 597 431 356 504 638 314 132 205 252 171 120 12 114 411 70 5 28 50 47 23 7 0 0 0 0 0 0 0 0 0
937 743 512 554 518 61 37 26 8 36 78 77 75 39 12 18 26 21 35 29 1 0 0 0 0 0 0 0 0 0 0 0
976 712 640 603 40 37 15 31 17 22 33 55 52 28 10 22 16 0 0 0 0 0 0 0 0 0 0 0 0 0 0 0
1105 947 895 551 42 36 8 19 34 53 66 31 20 9 8 0 0 0 0 0 0 0 0 0 0 0 0 0 0 0 0 0
1247 827 600 517 202 89 56 49 12 9 25 43 1 0 0 0 0 0 0 0 0 0 0 0 0 0 0 0 0 0 0 3
1157 829 704 581 196 17 0 0 0 0 0 0 0 0 0 0 0 0 0 0 0 0 0 0 0 0 0 0 0 0 7 22
911 767 624 381 66 0 4 8 0 0 0 0 0 0 0 0 0 0 0 0 0 0 0 0 0 11 0 0 0 0 0 14
270 62 4 0 0 0 0 0 0 0 0 0 0 0 0 0 0 0 0 0 0 1 0 1 5 5 15 11 0 0 0 0
0 0 0 0 0 0 0 0 0 0 0 0 0 0 0 0 0 0 0 0 0 3 1 0 0 0 4 4 2 1 0 0
0 0 0 0 0 0 0 0 0 0 0 0 0 0 0 0 0 0 0 0 1 1 0 0 2 6 3 0 1 1 1 0
0 0 0 0 0 0 0 0 0 0 0 0 0 0 0 0 0 0 6 7 10 2 0 2 1 0 0 0 0 0 0 0
0 0 0 0 0 0 0 0 0 0 0 0 0 0 0 0 0 0 5 17 5 9 6 11 5 0 0 5 9 17 0 4
0 0 0 0 0 0 0 2 2 0 0 0 0 0 0 0 0 0 11 26 7 2 35 32 18 10 12 19 26 27 28 38

GFSFLT2_con_mucape_015.txt.gz
CAPE
1051 802 536 664 760 688 700 734 715 652 423 218 46 32 38 48 47 42 36 45 73 78 94 140 138 123 83 83 59 103 0 0
1236 938 932 1093 975 633 636 638 630 554 318 126 71 78 36 42 51 125 157 148 203 341 348 308 269 293 107 41 70 90 0 1
1088 1007 870 904 924 772 638 664 590 452 355 102 55 177 158 87 87 157 276 204 197 240 133 148 232 315 297 38 88 0 0 1
975 918 884 759 475 532 324 75 135 256 488 319 248 443 431 19 69 221 209 121 202 142 70 116 100 17 43 243 0 0 0 0
1046 1366 1246 524 380 240 104 138 377 675 678 628 661 541 684 476 296 331 309 91 201 115 72 35 26 9 0 0 0 0 0 0
968 945 1082 516 279 156 113 346 530 539 794 783 828 686 620 556 316 342 374 227 134 102 88 37 7 0 0 0 0 0 0 0
718 776 618 499 256 332 669 741 801 856 930 661 678 773 665 464 648 437 202 98 93 68 47 1 0 0 0 0 0 0 0 0
663 561 516 327 481 774 536 237 138 103 197 340 504 428 312 133 83 138 39 97 12 13 0 0 0 0 0 0 0 0 0 0
771 745 533 474 763 321 86 3 29 14 67 237 219 237 91 28 31 16 15 11 0 0 0 0 0 0 0 0 0 0 0 1
1089 659 679 823 522 170 15 39 9 0 0 2 8 17 18 2 6 0 0 0 0 0 0 0 0 0 0 0 0 0 0 1
1357 1061 1018 705 394 167 307 113 30 9 14 2 6 0 0 0 0 0 0 0 0 0 0 0 0 0 0 0 1 0 4 0
1593 1317 1206 612 392 445 338 137 31 5 17 22 0 0 0 0 0 0 0 0 0 0 0 0 0 0 0 0 1 0 0 0
1046 1094 1223 794 810 583 73 9 1 0 0 0 0 0 0 0 0 0 0 0 0 0 2 0 0 0 0 1 1 2 12 0
1122 1060 936 913 481 65 21 49 30 0 0 0 0 0 0 0 0 0 0 0 0 0 1 0 0 0 0 0 0 0 0 0
1184 943 734 288 28 27 48 14 0 0 0 0 0 0 0 0 0 0 0 0 0 0 1 7 0 0 1 1 0 0 0 0
359 96 7 1 0 0 1 19 21 0 0 0 0 0 0 0 0 0 0 0 0 0 0 3 6 7 10 7 13 17 0 0
0 0 0 0 0 0 0 0 0 0 0 0 0 0 0 0 0 0 0 0 1 6 14 14 20 26 21 14 10 1 0 6
0 0 0 0 0 0 0 0 0 0 0 0 1 0 0 0 0 0 0 0 7 16 21 27 32 23 11 3 20 19 16 23
0 0 0 0 0 0 0 0 0 0 0 0 0 0 0 0 0 0 0 0 7 14 27 30 58 26 0 15 28 35 37 35
0 0 0 0 0 0 0 0 7 0 0 0 0 0 0 0 0 0 3 10 17 33 56 76 57 43 37 42 52 49 51 39

GFSFLT2_con_mucape_018.txt.gz
CAPE
225 403 635 585 538 476 496 525 513 481 348 213 225 225 213 250 290 280 284 290 312 332 366 357 357 313 198 132 73 36 0 7
278 290 870 614 446 374 377 422 393 361 234 112 101 125 116 141 238 328 293 228 249 279 276 282 362 317 223 207 150 50 0 0
566 782 751 713 485 416 432 461 374 328 122 61 74 69 81 105 167 193 161 100 125 200 86 94 177 175 252 341 348 0 0 0
621 714 789 704 375 353 164 100 93 279 217 134 393 466 132 18 158 194 274 176 163 224 192 189 174 4 39 143 0 0 0 0
809 908 760 416 318 378 60 234 471 649 636 745 748 714 705 433 598 216 281 216 219 111 130 94 50 30 3 0 0 0 0 0
859 807 1160 377 310 250 339 515 709 808 870 730 936 926 877 596 403 245 203 79 132 71 36 5 5 1 5 0 0 0 0 0
780 1004 713 540 428 760 660 520 365 500 483 572 531 517 368 188 77 37 120 10 18 1 0 0 0 0 0 0 0 0 0 0
591 581 563 618 857 600 272 86 32 58 163 385 415 516 299 36 43 6 2 0 0 0 0 0 0 0 0 0 0 0 0 0
653 612 558 666 669 346 36 3 14 8 38 49 45 128 23 7 0 0 0 0 0 0 0 0 0 0 0 0 0 0 0 0
642 508 595 839 512 130 104 47 22 0 0 0 0 0 0 0 0 0 0 0 0 0 0 0 0 0 0 0 0 0 0 0
714 914 895 548 367 201 248 201 54 2 8 0 0 0 0 0 0 0 0 0 0 0 0 0 0 0 0 0 0 0 0 0
1007 1100 811 511 314 339 474 281 34 7 0 0 0 0 0 0 0 0 0 0 0 0 0 0 0 0 0 0 0 0 0 0
1133 902 579 517 436 427 350 19 0 0 0 0 0 0 0 0 0 0 0 0 0 0 0 0 0 0 0 0 0 0 0 0
1037 869 583 706 774 250 4 1 0 0 0 0 0 0 0 0 0 0 0 0 0 0 0 0 0 0 0 0 0 0 0 0
830 819 824 976 255 11 9 0 0 0 0 0 0 0 0 0 0 0 0 0 0 0 0 0 0 0 0 0 0 0 0 0
1045 929 604 120 11 0 0 0 0 0 0 0 0 0 0 0 0 0 0 0 0 0 0 0 0 0 0 0 0 0 0 0
380 143 25 0 0 0 0 0 0 0 0 0 0 0 0 0 0 0 0 0 0 0 0 1 0 2 0 0 0 0 0 0
9 0 0 0 0 0 0 0 0 0 0 0 2 0 0 0 0 0 0 0 0 0 0 0 0 0 2 11 0 0 0 0
0 0 0 0 0 0 0 0 0 0 1 14 16 0 0 0 0 0 0 0 0 0 0 0 0 0 0 0 0 0 2 12
0 0 0 0 0 0 0 0 0 0 2 16 3 0 0 0 0 0 0 0 0 0 0 2 4 8 0 13 0 0 4 8

GFSFLT2_con_mucape_021.txt.gz
CAPE
124 212 446 462 374 341 308 334 270 178 196 223 215 224 289 359 364 358 315 240 176 146 85 46 105 159 162 142 127 120 0 0
83 294 222 290 204 231 192 181 149 113 125 115 97 173 260 298 277 292 197 68 23 24 22 50 71 66 124 159 181 9 0 0
1 224 257 240 123 151 165 222 132 68 61 38 30 45 20 71 52 138 79 0 0 19 45 40 61 5 179 133 108 0 0 0
101 234 339 215 129 71 57 106 32 0 130 106 126 86 10 5 29 102 45 27 25 38 86 114 74 0 0 21 0 0 0 0
284 393 465 244 87 28 112 216 167 202 292 302 232 248 136 140 135 57 42 25 44 37 12 10 0 0 0 0 0 0 0 0
525 596 447 178 182 107 114 255 328 468 436 432 323 360 188 75 48 40 25 18 8 10 9 10 0 0 0 0 0 0 0 0
577 662 299 221 209 335 375 426 486 415 391 458 386 320 191 185 31 3 0 1 1 0 0 0 0 0 0 0 0 0 0 0
689 426 180 303 336 304 302 235 183 47 65 41 143 154 57 0 0 0 0 0 0 0 0 0 0 0 0 0 0 0 0 0
671 209 386 264 162 155 107 10 0 0 0 0 39 142 15 0 1 1 0 0 0 0 0 0 0 0 0 0 0 0 0 0
351 227 467 347 316 168 4 15 10 0 0 0 0 0 0 0 0 0 0 0 0 0 0 0 0 0 0 0 0 0 0 0
313 311 487 350 299 186 19 45 17 0 0 0 0 0 0 0 0 0 0 0 0 0 0 0 0 0 0 0 0 0 0 0
320 431 509 433 401 62 69 84 28 3 1 0 0 0 0 0 0 0 0 0 0 0 0 0 0 0 0 0 0 0 0 0
459 508 549 498 211 81 175 64 15 0 0 0 0 0 0 0 0 0 0 0 0 0 0 0 0 0 0 0 0 0 0 0
600 626 668 573 199 222 158 20 0 0 0 0 0 0 0 0 0 0 0 0 0 0 0 0 0 0 0 0 0 0 0 0
730 749 677 362 310 342 6 0 0 0 0 0 0 0 0 0 0 0 0 0 0 0 0 0 0 0 0 0 0 0 0 0
744 673 364 422 530 0 0 0 0 0 0 0 0 0 0 0 0 0 0 0 0 0 0 0 0 0 0 0 0 0 0 0
561 430 447 502 0 0 0 0 0 0 0 0 0 0 0 0 0 0 0 0 0 0 0 0 0 0 0 0 0 0 0 0
745 388 94 36 0 0 0 0 0 0 0 0 0 0 1 0 0 0 0 0 0 0 0 0 0 0 2 1 0 0 0 0
530 228 120 54 2 0 0 0 0 0 0 0 0 1 0 0 0 0 0 0 0 0 0 0 0 0 0 0 0 0 0 0
215 158 38 0 0 0 0 0 0 0 0 0 2 4 0 0 0 0 0 0 0 0 0 0 0 0 0 0 0 0 0 0

GFSFLT2_con_mucape_027.txt.gz
CAPE
129 58 246 305 214 191 192 230 254 326 314 324 327 317 307 327 327 309 225 134 106 84 80 97 284 162 3 0 0 0 0 0
43 16 81 165 152 203 196 173 200 274 291 247 232 259 316 296 252 222 96 20 61 97 74 109 42 149 0 0 0 0 0 0
46 54 200 153 116 161 152 174 175 213 193 145 78 31 7 4 37 37 5 0 19 90 22 7 0 1 0 0 0 0 0 0
61 86 144 132 110 100 30 47 46 31 17 9 2 0 7 6 18 10 3 37 8 10 0 0 0 0 0 0 0 0 0 0
75 183 187 123 67 41 13 2 0 0 22 39 9 2 9 0 8 0 0 0 0 0 0 0 0 0 0 0 0 0 0 0
8 138 216 68 28 4 1 0 26 33 103 85 46 20 75 39 15 0 0 0 0 0 0 0 0 0 0 0 0 0 0 0
72 217 293 69 0 0 0 128 242 247 136 174 129 78 40 31 5 0 0 0 0 0 0 0 0 0 0 0 0 0 0 0
191 298 346 63 9 45 138 309 365 311 261 242 206 136 97 32 48 10 1 0 0 0 0 0 0 0 0 0 0 0 0 0
250 367 430 60 49 145 306 318 329 410 397 363 214 194 47 0 0 0 0 0 0 0 0 0 0 0 0 0 0 0 0 0
421 468 341 76 65 206 361 375 329 185 1 0 0 0 0 0 0 0 0 0 0 0 0 0 0 0 0 0 0 0 0 0
464 422 301 179 162 275 373 442 92 0 0 0 0 0 0 0 0 0 0 0 0 0 0 0 0 0 0 0 0 0 0 0
593 656 606 320 227 332 317 176 31 13 20 1 0 0 0 0 0 0 0 0 0 0 0 0 0 0 0 0 0 0 0 0
795 561 387 255 274 249 214 143 52 33 29 12 0 0 0 0 0 0 0 0 0 0 0 0 0 0 0 0 0 0 0 0
692 278 246 294 292 230 185 130 42 60 59 31 0 0 0 0 0 0 0 0 0 0 0 0 0 0 0 0 0 0 0 0
579 330 314 237 233 236 236 170 64 58 79 49 0 0 0 0 0 0 0 0 0 0 0 0 0 0 0 0 0 0 0 0
546 363 353 324 304 289 291 203 51 76 118 22 0 0 0 0 0 0 0 0 0 0 0 0 0 0 0 0 0 0 0 0
354 416 397 359 288 395 364 304 106 107 58 0 0 0 0 0 0 0 0 4 0 0 0 0 0 0 0 0 0 0 0 0
371 567 498 455 438 438 304 128 112 42 0 0 3 2 1 0 0 0 1 4 0 0 0 0 0 0 0 0 0 0 0 0
628 647 561 433 574 679 149 254 88 21 34 41 43 35 0 4 6 3 0 0 0 0 0 0 0 0 0 0 0 0 0 0
803 706 625 670 748 345 413 472 274 49 47 61 39 11 22 5 2 0 4 0 0 0 0 0 0 0 0 0 0 0 0 0

GFSFLT2_con_mucape_030.txt.gz
CAPE
232 144 187 303 294 286 274 316 399 439 428 433 425 379 347 355 351 320 270 215 231 200 241 254 39 18 23 0 0 0 0 0
46 30 12 145 194 237 243 301 325 363 389 289 243 274 323 285 253 260 193 241 247 209 150 217 17 0 0 0 0 0 0 0
17 46 121 161 178 220 231 304 271 263 244 207 72 49 22 0 43 51 53 58 155 59 1 0 0 0 0 0 0 0 0 0
15 14 41 81 186 55 49 92 64 39 43 19 0 0 0 0 14 38 61 15 0 0 0 0 0 0 0 0 0 0 0 0
0 7 8 79 103 26 22 18 4 1 0 0 0 0 0 0 0 2 9 3 0 0 0 0 0 0 0 0 0 0 0 0
0 32 100 154 59 6 0 0 0 1 3 5 0 0 5 13 25 12 6 0 0 0 0 0 0 0 0 0 0 0 0 0
0 64 192 83 10 0 0 0 0 1 40 21 0 15 47 50 18 0 0 0 5 0 0 0 0 0 0 0 0 0 0 0
38 121 319 128 0 0 0 83 68 30 104 162 82 69 52 33 21 6 16 34 17 0 0 0 0 0 0 0 0 0 0 0
0 175 358 186 0 0 60 269 295 256 225 231 196 183 114 104 68 33 9 0 0 0 0 0 0 0 0 0 0 0 0 0
157 267 358 249 0 6 134 295 338 359 352 317 233 218 177 63 0 0 0 0 0 0 0 0 0 0 0 0 0 0 0 0
294 350 410 276 10 74 258 284 231 219 173 75 52 10 0 0 0 0 0 0 0 0 0 0 0 0 0 0 0 0 0 0
388 419 500 259 22 88 296 310 317 87 20 13 18 0 0 0 0 0 0 0 0 0 0 0 0 0 0 0 0 0 0 0
506 458 472 276 149 202 294 388 231 71 32 33 28 3 0 0 0 0 0 0 0 0 0 0 0 0 0 0 0 0 0 0
478 454 464 343 360 211 263 224 114 48 45 29 31 23 0 0 0 0 0 0 0 0 0 0 0 0 0 0 0 0 0 0
472 464 595 610 506 251 199 174 114 101 28 26 37 48 0 0 0 0 0 0 0 0 0 0 0 0 0 0 0 0 0 0
480 579 736 470 253 239 231 211 133 69 23 32 43 83 12 0 0 0 0 0 0 0 0 1 0 1 0 0 0 0 0 0
512 612 727 311 265 294 259 175 187 98 41 81 88 130 8 0 0 0 0 0 0 0 0 6 0 0 0 0 0 0 0 0
310 329 503 389 269 251 212 217 124 121 72 92 110 69 0 1 10 4 0 1 0 0 0 0 0 0 0 0 0 0 0 0
429 106 145 460 305 307 233 179 160 309 78 122 46 12 39 53 62 13 2 16 3 1 0 0 0 0 0 0 0 0 0 0
504 415 188 289 348 379 277 374 451 87 216 65 33 39 39 45 43 25 58 10 1 0 5 0 0 0 0 0 0 0 0 0

GFSFLT2_con_mucape_033.txt.gz
CAPE
373 294 84 125 214 292 311 408 444 411 418 461 469 396 385 372 310 245 242 234 304 324 128 124 174 87 1 0 0 0 0 0
252 188 43 7 165 333 328 337 360 382 423 338 274 322 327 312 255 252 263 239 271 352 148 54 26 0 0 0 0 0 0 0
253 123 10 111 166 258 402 400 331 294 250 215 112 62 63 18 53 105 195 101 49 36 0 0 0 0 0 0 0 0 0 0
113 12 16 118 152 148 230 267 193 155 92 95 67 83 28 24 58 119 26 0 0 0 0 0 0 0 0 0 0 0 0 0
41 37 2 68 199 86 83 48 77 81 61 49 39 72 58 36 2 0 0 0 0 0 0 0 0 0 0 0 0 0 0 0
3 4 6 88 172 66 22 45 24 38 0 37 116 77 20 5 8 15 8 0 0 0 0 0 0 0 0 0 0 0 0 0
6 20 45 142 87 14 14 16 3 4 1 97 85 53 12 22 33 33 6 0 0 2 0 0 0 0 0 0 0 0 0 0
1 12 110 162 6 0 0 16 20 0 46 59 14 43 48 49 43 36 0 0 0 0 0 0 0 0 0 0 0 0 0 0
2 48 324 186 0 0 17 81 41 41 71 76 87 88 75 53 38 29 3 0 0 0 0 0 0 0 0 0 0 0 0 0
8 76 278 310 0 0 46 102 135 141 141 143 119 115 116 114 119 17 0 0 0 0 0 0 0 0 0 0 0 0 0 0
2 117 354 381 22 13 82 213 310 316 210 184 164 177 202 194 23 0 0 0 0 0 0 0 0 0 0 0 0 0 0 0
125 285 368 373 75 19 73 257 293 343 266 186 147 44 3 0 0 0 0 0 0 0 0 0 0 0 0 0 0 0 0 0
282 335 275 391 145 53 138 296 233 180 105 8 10 5 4 0 0 0 0 0 0 0 0 0 0 0 0 0 0 0 0 0
370 416 332 415 175 65 84 245 261 207 38 16 18 10 9 3 0 0 0 0 0 0 0 0 0 0 0 0 0 0 0 0
474 457 421 379 232 71 148 251 255 140 46 27 48 23 29 36 0 0 0 0 0 0 0 0 0 0 0 0 0 0 0 0
516 458 484 428 310 213 218 222 190 129 35 60 67 43 46 63 69 0 0 0 0 0 0 1 1 0 0 0 0 0 0 0
532 417 445 447 458 310 335 248 152 66 50 75 58 37 75 57 66 0 0 0 0 0 1 17 0 0 0 0 0 0 0 0
501 371 486 435 460 383 210 307 167 142 117 63 55 45 58 46 17 0 17 28 7 10 15 2 1 0 0 0 0 0 0 0
553 543 474 350 368 338 259 196 206 246 213 223 251 56 47 47 15 18 28 38 10 13 4 0 0 0 0 0 0 0 0 0
622 620 248 6 10 81 246 279 252 213 198 210 265 46 27 13 18 46 72 32 15 3 0 0 0 0 0 0 0 0 0 0

GFSFLT2_con_mucape_036.txt.gz
CAPE
492 316 132 245 191 321 325 393 415 486 512 563 531 413 316 321 329 346 394 369 242 245 280 241 45 0 0 0 0 0 0 2
345 386 131 7 112 323 340 379 445 469 475 387 291 281 294 302 294 339 415 475 282 148 196 96 0 0 0 0 0 0 0 1
366 254 94 4 21 324 381 435 452 374 307 250 85 20 14 37 142 317 248 271 133 4 0 0 0 0 0 0 0 0 0 0
311 243 69 2 0 105 355 314 233 230 124 62 50 116 137 46 123 28 24 7 0 0 0 0 0 0 0 0 0 0 0 0
127 16 9 2 34 119 295 246 251 260 227 150 158 130 174 136 53 0 0 0 0 0 0 0 0 0 0 0 0 0 0 0
67 17 5 0 94 157 177 156 132 171 133 156 202 140 216 134 26 5 1 0 0 0 0 0 0 0 0 0 0 0 0 0
12 21 5 32 114 61 92 81 88 105 100 43 40 98 273 96 19 14 0 2 0 0 0 0 0 0 0 0 0 0 0 0
4 0 28 36 46 82 81 120 110 91 141 186 264 215 166 54 28 18 0 0 0 0 0 0 0 0 0 0 0 0 0 0
0 50 85 60 100 170 70 71 48 102 333 459 406 256 126 41 28 31 1 0 0 0 0 0 0 0 0 0 0 0 0 0
29 58 162 288 270 165 29 119 118 227 369 463 314 159 63 33 39 33 40 0 0 0 0 0 0 0 0 0 0 0 0 0
0 98 298 509 528 150 84 243 398 550 544 427 100 79 43 86 59 48 0 0 0 0 0 0 0 0 0 0 0 0 0 0
31 250 425 636 527 198 72 452 645 688 643 457 189 41 100 128 92 2 0 0 0 0 0 0 0 0 0 0 0 0 0 0
230 309 550 759 569 136 141 422 568 575 589 374 179 17 64 3 0 0 0 0 0 0 0 0 0 0 0 0 0 0 0 0
326 455 661 771 609 190 358 566 550 457 212 124 4 0 0 0 0 0 0 0 0 0 0 0 0 0 0 0 0 0 0 0
367 561 841 990 719 358 342 524 235 209 169 141 41 2 14 18 15 8 0 0 0 0 0 0 0 0 0 0 0 0 0 0
492 554 834 989 866 465 233 227 410 138 103 32 74 30 35 48 39 30 35 0 0 0 0 2 0 0 2 0 0 0 0 0
796 785 908 1070 990 730 565 436 582 278 43 57 43 28 49 49 45 81 103 29 0 1 18 12 0 0 0 0 0 0 0 0
935 962 993 1049 853 400 402 396 505 106 83 73 72 98 84 88 70 59 27 0 2 5 16 8 3 0 0 0 0 0 0 0
1233 1136 747 923 582 195 256 326 488 76 68 64 109 189 263 122 81 14 14 13 17 42 15 0 2 4 0 0 0 0 0 0
1478 1367 755 230 169 251 441 314 370 148 138 173 373 334 143 119 83 41 9 36 32 13 11 0 0 0 0 0 0 0 0 0

GFSFLT2_con_mucape_042.txt.gz
CAPE
206 289 560 386 383 432 525 709 781 851 922 841 635 530 436 385 470 557 505 358 311 237 164 63 0 0 0 0 0 22 14 0
70 77 155 162 271 395 478 516 562 549 440 357 277 320 360 317 286 380 376 346 284 211 86 0 0 0 0 0 0 0 1 0
79 75 23 136 328 423 566 600 397 324 276 223 117 69 41 195 296 322 346 291 258 140 0 0 0 0 0 0 0 0 0 0
249 184 54 98 292 319 350 294 181 203 140 111 103 125 169 212 276 211 191 201 161 22 0 0 0 0 0 0 0 0 0 0
293 213 126 83 2 80 57 118 90 158 148 209 162 158 160 124 114 53 9 1 0 0 0 0 0 0 0 0 0 0 0 0
111 195 46 33 8 43 82 90 157 146 226 272 238 287 200 92 117 98 25 0 0 0 0 0 0 0 0 0 0 0 0 0
77 28 44 15 14 15 38 51 126 176 228 309 331 339 424 236 116 88 4 42 0 0 0 0 0 0 0 0 0 0 0 0
29 43 30 27 5 2 2 2 83 167 210 263 307 376 410 327 334 253 159 35 10 0 0 0 0 0 0 0 0 0 0 0
9 16 21 28 8 0 1 0 64 45 99 263 297 245 534 456 252 184 127 95 45 0 0 0 0 0 0 0 0 0 0 0
0 1 2 3 8 3 3 1 24 19 49 324 354 363 477 445 363 201 113 20 0 0 0 0 0 0 0 0 0 0 0 0
0 3 3 0 0 3 0 15 222 111 67 262 546 474 379 426 304 196 74 23 0 0 0 0 0 0 0 0 0 0 0 0
0 0 0 0 0 23 38 143 110 75 81 328 310 430 484 463 305 124 58 25 18 0 0 0 0 0 0 0 0 0 0 0
0 0 0 0 16 58 102 30 79 112 352 338 505 458 388 296 254 110 68 50 11 0 0 0 0 0 0 0 0 0 0 0
0 0 0 45 82 3 58 14 25 136 460 597 556 444 272 253 247 98 57 24 0 0 0 0 0 0 0 0 0 0 0 0
0 0 21 95 140 90 31 34 15 98 260 521 503 442 283 166 210 80 19 11 2 4 1 0 0 0 0 0 0 0 0 0
0 0 0 121 274 392 38 0 14 255 410 320 382 498 361 116 51 6 2 13 11 12 27 2 1 2 0 4 4 0 0 0
99 75 157 232 308 536 368 101 302 611 459 476 283 281 255 86 17 20 33 46 36 29 27 16 10 30 0 0 0 3 0 0
334 321 363 416 558 610 577 331 504 509 387 336 302 155 98 50 19 29 52 76 93 78 31 54 37 1 5 8 11 2 0 0
439 495 515 548 729 786 858 737 631 497 310 269 281 136 77 54 58 37 76 131 117 64 42 59 11 11 26 8 6 3 2 9
547 528 498 539 804 897 872 839 613 501 419 295 230 189 80 90 60 127 151 97 51 17 56 15 20 23 25 19 0 8 0 0

GFSFLT2_con_mucape_045.txt.gz
CAPE
411 462 458 353 239 383 682 746 801 803 804 713 657 670 781 950 885 650 451 320 189 106 53 0 0 0 0 0 3 0 0 0
246 275 300 199 185 187 542 633 614 516 452 330 259 329 530 618 571 427 331 251 178 83 0 0 0 0 0 0 0 0 0 0
101 26 85 71 35 306 613 681 369 262 222 182 43 27 50 124 281 324 319 228 145 56 0 0 0 0 0 0 0 0 0 0
25 13 19 15 38 305 363 253 74 107 72 21 17 73 63 102 197 260 245 190 94 27 0 0 0 0 0 0 0 0 0 0
240 46 11 0 12 14 166 72 86 34 50 43 128 114 57 26 45 72 82 52 2 0 0 0 0 0 0 0 0 0 0 0
131 168 70 31 0 2 23 81 86 52 88 92 161 48 35 49 39 27 21 11 0 0 0 0 0 0 0 0 0 0 0 0
73 33 3 30 20 18 47 77 60 134 134 129 147 65 48 77 66 12 15 4 0 0 0 0 0 0 0 0 0 0 0 0
125 59 12 32 15 15 0 42 58 140 168 188 225 200 126 95 60 42 16 0 0 0 0 0 0 0 0 0 0 0 0 0
18 6 9 16 4 6 0 1 36 52 54 32 125 211 257 130 142 74 43 0 1 0 0 0 0 0 0 0 0 0 0 0
10 15 27 15 4 7 6 0 0 8 0 111 110 116 237 319 114 108 52 6 0 0 0 0 0 0 0 0 0 0 0 0
7 3 4 9 4 2 5 3 1 5 1 17 146 99 303 212 225 120 44 1 0 0 0 0 0 0 0 0 0 0 0 0
0 1 1 0 4 10 3 43 1 3 0 0 145 179 192 251 236 75 29 0 0 0 0 0 0 0 0 0 0 0 0 0
0 0 0 0 0 0 0 0 0 12 0 98 43 59 144 318 221 112 78 0 23 0 0 0 0 0 0 0 0 0 0 0
0 0 0 0 0 2 2 0 0 0 4 10 8 13 120 267 158 92 70 66 6 1 1 0 0 0 0 0 0 0 0 0
0 0 0 0 0 3 5 19 6 0 0 51 17 191 242 187 145 105 74 50 10 9 24 18 9 0 0 0 0 0 0 0
0 0 0 0 0 0 0 0 0 0 5 99 199 276 267 240 150 129 135 43 26 34 31 22 1 12 0 0 0 0 0 0
0 0 0 0 0 0 0 0 0 0 5 89 217 275 347 272 147 95 100 29 31 40 58 53 38 26 18 5 1 0 7 3
0 0 0 0 0 4 42 111 0 4 67 123 187 201 333 317 165 64 44 19 14 23 55 19 50 46 12 9 0 0 0 1
0 0 0 0 0 34 34 84 149 49 130 193 164 151 191 172 122 56 35 28 19 37 40 61 16 5 25 0 0 2 7 18
57 0 0 0 23 48 69 80 90 95 156 216 179 150 124 55 149 91 53 41 72 71 130 69 27 44 11 13 4 0 3 8

GFSFLT2_con_mucape_048.txt.gz
CAPE
545 233 369 62 64 144 641 733 930 975 1131 1189 1162 1077 985 768 603 418 250 120 53 0 0 0 18 0 0 0 0 0 0 0
361 223 118 15 24 30 300 617 576 502 633 664 740 812 793 623 392 318 189 127 63 0 0 0 0 0 0 0 0 0 0 0
232 109 33 71 60 75 153 422 365 274 390 417 375 319 236 78 170 212 184 85 65 0 0 0 0 0 0 0 0 0 0 0
120 93 25 11 18 15 177 287 144 71 121 129 104 95 55 86 126 143 107 77 64 12 0 0 0 0 0 0 0 0 0 0
229 130 57 3 0 5 70 96 44 1 2 6 12 7 36 30 19 25 38 60 23 1 0 0 0 0 0 0 0 0 0 0
253 135 74 5 1 0 48 25 0 0 0 8 1 0 6 7 4 3 2 0 0 0 0 0 0 0 0 0 0 0 0 0
206 52 98 11 6 4 57 2 0 1 19 11 0 0 4 7 0 5 10 10 1 0 0 0 0 0 0 0 0 0 0 0
131 45 48 23 10 16 11 0 9 11 48 20 0 6 9 4 0 3 7 16 0 0 0 0 0 0 0 0 0 0 0 0
155 36 36 40 23 12 16 10 6 41 77 41 16 16 28 17 17 27 24 10 3 0 0 0 0 0 0 0 0 0 0 0
75 23 17 11 25 16 8 10 28 43 61 83 87 102 99 104 103 71 32 29 1 0 0 0 0 0 0 0 0 0 0 0
2 46 8 12 20 8 15 14 7 15 18 32 48 74 159 161 119 113 69 27 0 0 0 0 0 0 0 0 0 0 0 0
14 17 6 17 19 4 16 10 3 0 2 1 1 70 82 168 144 94 62 26 0 0 0 0 0 0 0 0 0 0 0 0
0 4 1 0 4 2 1 1 0 2 4 2 3 14 70 144 126 103 47 5 0 9 0 0 0 0 0 0 0 0 0 0
0 0 0 0 0 5 0 0 0 3 0 0 0 0 41 94 141 94 71 3 44 19 25 11 0 0 0 0 0 0 0 0
0 0 0 0 0 0 0 1 3 0 0 0 0 0 0 16 51 132 68 39 27 49 48 14 13 29 20 23 0 1 0 1
0 0 0 0 0 0 0 0 0 0 0 0 0 5 14 18 64 109 62 60 48 62 52 30 41 38 34 8 9 28 6 0
0 0 0 0 0 0 0 0 0 0 0 0 2 30 31 103 139 177 127 97 40 36 10 21 41 34 20 27 42 1 3 5
0 0 0 0 0 0 0 0 0 0 0 0 0 46 82 115 164 206 112 91 94 36 24 23 35 37 21 24 0 0 10 0
0 0 0 0 0 0 0 0 0 0 0 0 0 26 86 123 170 124 87 84 85 46 42 43 41 25 31 10 6 2 2 12
0 0 0 0 0 0 0 0 15 13 7 4 0 13 43 164 207 149 110 63 68 52 28 26 44 50 19 31 14 3 0 6